{"data":{"norad_id":36287,"intl_designator":"2010-001A","name":"BEIDOU-2 G1","alt_names":[],"object_type":"PAYLOAD","status":"ACTIVE","operator":null,"country":"PRC","launch_date":"2010-01-16","launch_site_code":"XICLF","launch_vehicle":null,"mission":null,"orbit_class":"UNKNOWN","rcs_meters":79.4328,"size_class":null,"mass_kg":null,"dimensions":null,"purposes":["comms"],"wikipedia_slug":null,"has_3d_model":false,"image_url":null,"decayed_at":null,"tle_current":{"epoch":"2026-09-19T21:03:35.294976Z","epoch_age_seconds":72100,"freshness":"FRESH","line1":"1 36287U 10001A   26262.87749184 -.00000282  00000+0  00000+0 0  9995","line2":"2 36287   4.5118  59.9997 0001915 258.5493 136.6233  1.00273859 61126","mean_motion":1.00273859,"eccentricity":0.0001915,"inclination_deg":4.5118,"raan_deg":59.9997,"arg_perigee_deg":258.5493,"mean_anomaly_deg":136.6233,"bstar":0,"rev_number":6112,"period_min":1436.0672007248,"perigee_km":35777.939118893,"apogee_km":35794.087988555,"semimajor_km":42164.150553724,"source":"CELESTRAK","updated_at":"2026-09-20T09:00:35.161692Z"}}}